Location: Granada Hills
(34.2650°N, 118.5220°W)
Time: 01:15:02
(UTC-07:00)

deb Kosmos-1763 - Visible Passes

Search period start: 29 May 2015 00:00
Search period end: 08 June 2015 00:00
Orbit: 536 x 550 km, 74.0° (Epoch: 28 May)

Date Brightness Start Highest point End Pass type
(mag) Time Alt. Az. Time Alt. Az. Time Alt. Az.
30 May 7.1 03:44:45 10° ESE 03:46:06 12° E 03:47:40 10° ENE visible
31 May 7.0 03:37:24 10° SE 03:39:22 14° E 03:41:31 10° ENE visible
01 Jun 6.8 03:30:23 11° SE 03:32:36 16° E 03:35:09 10° ENE visible
01 Jun 5.4 05:06:07 10° SW 05:09:39 28° WNW 05:13:08 10° N visible
02 Jun 6.5 03:24:12 15° SE 03:25:50 18° E 03:28:42 10° NE visible
02 Jun 5.6 04:59:47 11° WSW 05:02:56 25° WNW 05:06:15 10° N visible
03 Jun 6.3 03:17:56 19° ESE 03:19:02 21° E 03:22:10 10° NE visible
03 Jun 5.8 04:53:31 12° WSW 04:56:13 22° WNW 04:59:18 10° NNW visible
04 Jun 6.0 03:11:37 24° ESE 03:12:13 25° ESE 03:15:33 10° NE visible
04 Jun 6.0 04:47:11 13° WSW 04:49:28 19° WNW 04:52:19 10° NNW visible
05 Jun 5.8 03:05:13 28° ESE 03:05:23 29° ESE 03:08:53 10° NE visible
05 Jun 6.2 04:40:47 13° W 04:42:43 17° WNW 04:45:15 10° NNW visible
06 Jun 5.6 02:58:46 33° E 02:58:46 33° E 03:02:11 10° NE visible
06 Jun 6.3 04:34:20 12° W 04:35:57 14° WNW 04:38:07 10° NNW visible
07 Jun 5.5 02:52:15 37° E 02:52:15 37° E 02:55:26 10° NNE visible
07 Jun 6.5 04:27:48 11° W 04:29:10 13° WNW 04:30:51 10° NW visible
